Location: Bernay
(48.6766°N, 2.9386°E)
Time: 09:34:56
(UTC+00:00)

SJ 16-02 - Pass Details

Date: 12 January 2026
Orbit: 583 x 594 km, 75.0° (Epoch: 15 February)

Event Time Altitude Azimuth Distance (km) Brightness Sun altitude
Rises 17:35:33 0° 335° (NNW) 2,824 4.8 -12.7°
Reaches altitude 10° 17:37:48 10° 331° (NNW) 1,921 4.0 -13.0°
Maximum altitude 17:41:59 56° 254° (WSW) 703 2.0 -13.7°
Drops below altitude 10° 17:46:10 10° 176° (S) 1,913 4.0 -14.3°
Sets 17:48:24 0° 172° (S) 2,811 4.8 -14.7°
